DW4379 Weather Reports


Display with metric or nautical units.
time (UTC)temp
F
wind
direction
speed
MPH
gust
MPH
rain 1hr
in
rain 24hr
in
rain mn
in
humidity
%
barometer
mb
20260901213003 99 0 0.0 0.0 0.00 0.00 0.00 50 1014.3
20260901212504 99 250 0.0 1.0 0.00 0.00 0.00 49 1014.3
20260901212004 99 254 0.0 1.0 0.00 0.00 0.00 50 1014.3
20260901211503 98 267 0.0 1.0 0.00 0.00 0.00 51 1014.3
20260901211004 98 218 0.0 3.0 0.00 0.00 0.00 50 1014.3
20260901210504 99 205 0.0 3.0 0.00 0.00 0.00 50 1014.3
20260901210004 99 188 0.0 2.0 0.00 0.00 0.00 50 1014.4
20260901205503 99 247 0.0 1.0 0.00 0.00 0.00 50 1014.6
20260901205004 99 229 0.0 1.0 0.00 0.00 0.00 49 1014.6
20260901204718 99 228 0.0 1.0 0.00 0.00 0.00 49 1014.6
20260901204004 99 231 0.0 1.0 0.00 0.00 0.00 48 1014.6
20260901203503 99 0 0.0 0.0 0.00 0.00 0.00 50 1014.7
20260901203003 99 272 0.0 1.0 0.00 0.00 0.00 50 1014.6
20260901202503 99 256 0.0 1.0 0.00 0.00 0.00 49 1014.6
20260901202004 99 258 0.0 1.0 0.00 0.00 0.00 49 1014.5
20260901201504 99 286 0.0 1.0 0.00 0.00 0.00 50 1014.7
20260901201219 99 277 0.0 1.0 0.00 0.00 0.00 50 1014.6
20260901200718 99 250 0.0 2.0 0.00 0.00 0.00 50 1014.7
20260901200219 99 253 0.0 2.0 0.00 0.00 0.00 49 1014.7
20260901195504 100 212 0.0 1.0 0.00 0.00 0.00 49 1014.8
20260901195003 100 182 0.0 2.0 0.00 0.00 0.00 49 1014.8
20260901194504 99 247 0.0 2.0 0.00 0.00 0.00 50 1014.9
20260901194004 99 279 0.0 2.0 0.00 0.00 0.00 49 1014.9
20260901193504 99 256 0.0 3.0 0.00 0.00 0.00 49 1014.9
20260901193003 99 236 0.0 3.0 0.00 0.00 0.00 49 1015.1
20260901192503 99 227 0.0 2.0 0.00 0.00 0.00 50 1015.1
20260901192003 99 256 0.0 1.0 0.00 0.00 0.00 51 1015.2
20260901191504 99 249 0.0 4.0 0.00 0.00 0.00 49 1015.2
20260901191004 99 236 0.0 4.0 0.00 0.00 0.00 51 1015.2
20260901190717 99 235 0.0 1.0 0.00 0.00 0.00 51 1015.3
20260901190004 98 262 0.0 2.0 0.00 0.00 0.00 52 1015.3
20260901185504 98 261 0.0 2.0 0.00 0.00 0.00 50 1015.4
20260901185004 98 207 0.0 1.0 0.00 0.00 0.00 52 1015.4
20260901184504 98 274 0.0 1.0 0.00 0.00 0.00 52 1015.5
20260901184004 98 265 0.0 1.0 0.00 0.00 0.00 51 1015.6
20260901183503 98 245 0.0 2.0 0.00 0.00 0.00 50 1015.6
20260901183218 97 240 0.0 2.0 0.00 0.00 0.00 52 1015.6
20260901182504 97 288 0.0 1.0 0.00 0.00 0.00 53 1015.7
20260901182004 96 302 0.0 2.0 0.00 0.00 0.00 53 1015.7
20260901181504 96 297 0.0 2.0 0.00 0.00 0.00 52 1015.8
20260901181003 97 243 0.0 1.0 0.00 0.00 0.00 52 1015.7
20260901180504 96 265 0.0 1.0 0.00 0.00 0.00 53 1015.8
20260901180004 96 222 0.0 2.0 0.00 0.00 0.00 55 1015.8
20260901175717 96 233 0.0 2.0 0.00 0.00 0.00 55 1015.8
20260901175218 96 263 0.0 2.0 0.00 0.00 0.00 55 1015.9
20260901174717 95 275 0.0 2.0 0.00 0.00 0.00 55 1015.9
20260901174004 96 237 0.0 1.0 0.00 0.00 0.00 55 1015.9
20260901173719 96 235 0.0 1.0 0.00 0.00 0.00 55 1016.0
20260901173004 95 261 0.0 3.0 0.00 0.00 0.00 56 1016.1
20260901172503 95 233 0.0 3.0 0.00 0.00 0.00 56 1016.1
20260901172003 95 243 0.0 1.0 0.00 0.00 0.00 55 1016.1
20260901171719 95 260 0.0 1.0 0.00 0.00 0.00 57 1016.1
20260901171218 95 244 0.0 1.0 0.00 0.00 0.00 56 1016.2
20260901170503 95 258 0.0 1.0 0.00 0.00 0.00 58 1016.3
20260901170004 94 255 0.0 1.0 0.00 0.00 0.00 58 1016.2
20260901165503 94 278 0.0 1.0 0.00 0.00 0.00 59 1016.3
20260901165004 94 208 0.0 2.0 0.00 0.00 0.00 58 1016.4
20260901164504 94 176 0.0 2.0 0.00 0.00 0.00 61 1016.4
20260901164003 93 162 0.0 1.0 0.00 0.00 0.00 61 1016.3
20260901163718 93 173 0.0 3.0 0.00 0.00 0.00 61 1016.3
20260901163004 93 201 0.0 3.0 0.00 0.00 0.00 59 1016.4
20260901162504 93 217 0.0 1.0 0.00 0.00 0.00 61 1016.5
20260901162003 92 273 0.0 2.0 0.00 0.00 0.00 63 1016.4
20260901161504 92 221 0.0 2.0 0.00 0.00 0.00 63 1016.4
20260901161003 92 221 0.0 4.0 0.00 0.00 0.00 64 1016.5
20260901160504 91 217 1.0 4.0 0.00 0.00 0.00 64 1016.7
20260901160004 90 217 0.0 4.0 0.00 0.00 0.00 65 1016.7
20260901155504 90 221 0.0 4.0 0.00 0.00 0.00 65 1016.6
20260901155003 90 187 1.0 3.0 0.00 0.00 0.00 66 1016.6
20260901154503 90 188 1.0 3.0 0.00 0.00 0.00 66 1016.5
20260901154003 89 196 0.0 3.0 0.00 0.00 0.00 66 1016.6
20260901153503 89 198 0.0 2.0 0.00 0.00 0.00 68 1016.5
20260901153003 89 189 1.0 3.0 0.00 0.00 0.00 67 1016.5
20260901152504 88 198 1.0 3.0 0.00 0.00 0.00 67 1016.5
20260901152003 88 152 0.0 2.0 0.00 0.00 0.00 69 1016.7
20260901151504 88 137 0.0 2.0 0.00 0.00 0.00 69 1016.6
20260901151004 87 164 0.0 1.0 0.00 0.00 0.00 70 1016.5
20260901150503 87 203 0.0 1.0 0.00 0.00 0.00 70 1016.6
20260901150004 86 235 0.0 1.0 0.00 0.00 0.00 72 1016.6
20260901145504 86 223 0.0 1.0 0.00 0.00 0.00 72 1016.7
20260901145003 86 188 0.0 3.0 0.00 0.00 0.00 73 1016.7
20260901144504 85 175 0.0 3.0 0.00 0.00 0.00 73 1016.6
20260901144003 85 225 0.0 2.0 0.00 0.00 0.00 74 1016.6
20260901143504 84 225 0.0 2.0 0.00 0.00 0.00 74 1016.5
20260901143003 84 189 0.0 3.0 0.00 0.00 0.00 75 1016.7
20260901142504 84 212 0.0 4.0 0.00 0.00 0.00 75 1016.8
20260901142003 83 214 0.0 4.0 0.00 0.00 0.00 77 1016.7
20260901141717 83 182 0.0 2.0 0.00 0.00 0.00 77 1016.6
20260901141003 83 225 0.0 1.0 0.00 0.00 0.00 78 1016.6
20260901140717 82 181 0.0 1.0 0.00 0.00 0.00 78 1016.7
20260901140004 82 192 0.0 1.0 0.00 0.00 0.00 79 1016.7
20260901135717 82 218 0.0 1.0 0.00 0.00 0.00 79 1016.6
20260901135003 81 199 0.0 1.0 0.00 0.00 0.00 80 1016.7
20260901134503 81 223 0.0 2.0 0.00 0.00 0.00 81 1016.7
20260901134003 80 228 0.0 2.0 0.00 0.00 0.00 81 1016.7
20260901133503 80 234 0.0 1.0 0.00 0.00 0.00 82 1016.7
20260901133218 80 234 0.0 1.0 0.00 0.00 0.00 82 1016.6
20260901132504 80 229 0.0 1.0 0.00 0.00 0.00 83 1016.6
20260901132003 79 228 0.0 1.0 0.00 0.00 0.00 83 1016.6
20260901131717 79 232 0.0 1.0 0.00 0.00 0.00 83 1016.7
20260901131218 79 225 0.0 1.0 0.00 0.00 0.00 84 1016.8
20260901130717 79 224 0.0 1.0 0.00 0.00 0.00 84 1016.9
20260901130003 79 127 0.0 1.0 0.00 0.00 0.00 84 1016.8
20260901125504 79 233 0.0 1.0 0.00 0.00 0.00 84 1016.8
20260901125004 78 232 0.0 1.0 0.00 0.00 0.00 84 1016.8
20260901124504 79 226 0.0 1.0 0.00 0.00 0.00 84 1016.8
20260901124003 78 0 0.0 0.0 0.00 0.00 0.00 84 1016.8
20260901123717 78 226 0.0 1.0 0.00 0.00 0.00 85 1016.8
20260901123004 77 226 0.0 1.0 0.00 0.00 0.00 86 1016.8
20260901122504 76 0 0.0 0.0 0.00 0.00 0.00 87 1016.8
20260901122218 76 0 0.0 0.0 0.00 0.00 0.00 87 1016.6
20260901121504 76 0 0.0 0.0 0.00 0.00 0.00 88 1016.4
20260901121003 75 0 0.0 0.0 0.00 0.00 0.00 88 1016.4
20260901120504 75 146 0.0 1.0 0.00 0.00 0.00 88 1016.4
20260901120004 75 146 0.0 1.0 0.00 0.00 0.00 88 1016.3
20260901115718 75 0 0.0 0.0 0.00 0.00 0.00 88 1016.3
20260901115003 75 0 0.0 0.0 0.00 0.00 0.00 88 1016.2
20260901114719 75 0 0.0 0.0 0.00 0.00 0.00 88 1016.1
20260901114003 75 146 0.0 1.0 0.00 0.00 0.00 88 1016.0
20260901113504 75 146 0.0 1.0 0.00 0.00 0.00 88 1016.1
20260901113003 75 0 0.0 0.0 0.00 0.00 0.00 88 1016.0
20260901112503 75 0 0.0 0.0 0.00 0.00 0.00 88 1016.0
20260901112004 75 0 0.0 0.0 0.00 0.00 0.00 88 1016.0
20260901111503 75 0 0.0 0.0 0.00 0.00 0.00 88 1015.9
20260901111004 75 0 0.0 0.0 0.00 0.00 0.00 88 1015.8
20260901110503 75 0 0.0 0.0 0.00 0.00 0.00 88 1015.8
20260901110004 75 230 0.0 1.0 0.00 0.00 0.00 88 1015.9
20260901105503 75 230 0.0 1.0 0.00 0.00 0.00 88 1015.9
20260901105003 75 0 0.0 0.0 0.00 0.00 0.00 88 1015.9
20260901104504 75 0 0.0 0.0 0.00 0.00 0.00 88 1015.8
20260901104003 75 0 0.0 0.0 0.00 0.00 0.00 87 1015.8
20260901103503 75 0 0.0 0.0 0.00 0.00 0.00 87 1015.8
20260901103217 75 0 0.0 0.0 0.00 0.00 0.00 87 1015.8
20260901102718 75 0 0.0 0.0 0.00 0.00 0.00 87 1015.8
20260901102003 76 0 0.0 0.0 0.00 0.00 0.00 87 1015.7
20260901101503 76 0 0.0 0.0 0.00 0.00 0.00 87 1015.8
20260901101217 76 0 0.0 0.0 0.00 0.00 0.00 87 1015.7
20260901100504 76 0 0.0 0.0 0.00 0.00 0.00 87 1015.7
20260901100003 76 0 0.0 0.0 0.00 0.00 0.00 87 1015.7
20260901095503 76 0 0.0 0.0 0.00 0.00 0.00 87 1015.7
20260901095003 76 0 0.0 0.0 0.00 0.00 0.00 87 1015.6
20260901094503 76 0 0.0 0.0 0.00 0.00 0.00 86 1015.6
20260901094217 76 0 0.0 0.0 0.00 0.00 0.00 86 1015.6
20260901093503 76 0 0.0 0.0 0.00 0.00 0.00 86 1015.7
20260901093217 76 0 0.0 0.0 0.00 0.00 0.00 86 1015.6
20260901092718 76 0 0.0 0.0 0.00 0.00 0.00 86 1015.6
20260901092003 76 0 0.0 0.0 0.00 0.00 0.00 86 1015.6
20260901091503 76 0 0.0 0.0 0.00 0.00 0.00 86 1015.6
20260901091218 76 0 0.0 0.0 0.00 0.00 0.00 86 1015.6
20260901090503 76 0 0.0 0.0 0.00 0.00 0.00 86 1015.6
20260901090219 76 0 0.0 0.0 0.00 0.00 0.00 86 1015.6
20260901085503 76 0 0.0 0.0 0.00 0.00 0.00 86 1015.5
20260901085004 76 0 0.0 0.0 0.00 0.00 0.00 86 1015.5
20260901084504 76 0 0.0 0.0 0.00 0.00 0.00 86 1015.5
20260901084003 76 0 0.0 0.0 0.00 0.00 0.00 85 1015.5
20260901083504 77 0 0.0 0.0 0.00 0.00 0.00 85 1015.5
20260901083003 77 0 0.0 0.0 0.00 0.00 0.00 85 1015.6
20260901082504 77 0 0.0 0.0 0.00 0.00 0.00 85 1015.5
20260901082003 77 0 0.0 0.0 0.00 0.00 0.00 85 1015.5
20260901081504 77 0 0.0 0.0 0.00 0.00 0.00 85 1015.5
20260901081218 77 0 0.0 0.0 0.00 0.00 0.00 85 1015.5
20260901080504 77 0 0.0 0.0 0.00 0.00 0.00 84 1015.5
20260901080003 77 0 0.0 0.0 0.00 0.00 0.00 84 1015.5
20260901075504 77 0 0.0 0.0 0.00 0.00 0.00 84 1015.6
20260901075004 78 0 0.0 0.0 0.00 0.00 0.00 84 1015.6
20260901074504 78 0 0.0 0.0 0.00 0.00 0.00 84 1015.6
20260901074218 78 0 0.0 0.0 0.00 0.00 0.00 83 1015.5
20260901073717 78 0 0.0 0.0 0.00 0.00 0.00 83 1015.5
20260901073003 78 0 0.0 0.0 0.00 0.00 0.00 83 1015.3
20260901072503 78 0 0.0 0.0 0.00 0.00 0.00 83 1015.3
20260901072004 78 0 0.0 0.0 0.00 0.00 0.00 83 1015.4
20260901071503 78 0 0.0 0.0 0.00 0.00 0.00 83 1015.4
20260901071218 78 0 0.0 0.0 0.00 0.00 0.00 83 1015.3
20260901070719 78 0 0.0 0.0 0.00 0.00 0.00 83 1015.3
20260901070218 78 0 0.0 0.0 0.00 0.00 0.00 83 1015.3
20260901065504 78 0 0.0 0.0 0.00 0.00 0.00 83 1015.4
20260901065218 78 0 0.0 0.0 0.00 0.00 0.00 83 1015.4
20260901064503 78 0 0.0 0.0 0.00 0.00 0.00 82 1015.4
20260901064004 78 0 0.0 0.0 0.00 0.00 0.00 82 1015.5
20260901063503 78 0 0.0 0.0 0.00 0.00 0.00 82 1015.5
20260901063004 79 0 0.0 0.0 0.00 0.00 0.00 82 1015.5
20260901062503 79 0 0.0 0.0 0.00 0.00 0.00 82 1015.6
20260901062004 79 0 0.0 0.0 0.00 0.00 0.00 82 1015.5
20260901061503 79 0 0.0 0.0 0.00 0.00 0.00 81 1015.4
20260901061217 79 0 0.0 0.0 0.00 0.00 0.00 81 1015.5
20260901060718 79 0 0.0 0.0 0.00 0.00 0.00 81 1015.5
20260901060004 79 0 0.0 0.0 0.00 0.00 0.00 81 1015.6
20260901055504 79 0 0.0 0.0 0.00 0.00 0.00 80 1015.7
20260901055003 79 0 0.0 0.0 0.00 0.00 0.00 80 1015.7
20260901054504 80 0 0.0 0.0 0.00 0.00 0.00 80 1015.6
20260901054003 80 0 0.0 0.0 0.00 0.00 0.00 80 1015.6
20260901053503 80 0 0.0 0.0 0.00 0.00 0.00 80 1015.5
20260901053003 80 0 0.0 0.0 0.00 0.00 0.00 80 1015.5
20260901052718 80 0 0.0 0.0 0.00 0.00 0.00 80 1015.5
20260901052004 80 0 0.0 0.0 0.00 0.00 0.00 80 1015.5
20260901051504 80 0 0.0 0.0 0.00 0.00 0.00 80 1015.4
20260901051003 80 0 0.0 0.0 0.00 0.00 0.00 80 1015.3
20260901050504 80 0 0.0 0.0 0.00 0.00 0.00 80 1015.3
20260901050003 80 0 0.0 0.0 0.00 0.00 0.00 80 1015.3
20260901045504 80 0 0.0 0.0 0.00 0.00 0.00 80 1015.3
20260901045217 80 0 0.0 0.0 0.00 0.00 0.00 79 1015.3
20260901044505 80 0 0.0 0.0 0.00 0.00 0.00 79 1015.4
20260901044003 80 0 0.0 0.0 0.00 0.00 0.00 79 1015.3
20260901043503 80 0 0.0 0.0 0.00 0.00 0.00 79 1015.3
20260901043004 80 0 0.0 0.0 0.00 0.00 0.00 78 1015.2
20260901042503 81 0 0.0 0.0 0.00 0.00 0.00 78 1015.3
20260901042003 81 0 0.0 0.0 0.00 0.00 0.00 78 1015.4
20260901041718 81 0 0.0 0.0 0.00 0.00 0.00 78 1015.3
20260901041003 81 0 0.0 0.0 0.00 0.00 0.00 77 1015.4
20260901040503 81 0 0.0 0.0 0.00 0.00 0.00 77 1015.4
20260901040009 81 0 0.0 0.0 0.00 0.00 0.00 77 1015.4
20260901035504 81 0 0.0 0.0 0.00 0.00 0.00 77 1015.5
20260901035004 82 0 0.0 0.0 0.00 0.00 0.00 76 1015.4
20260901034504 82 0 0.0 0.0 0.00 0.00 0.00 76 1015.4
20260901034004 82 0 0.0 0.0 0.00 0.00 0.00 75 1015.4
20260901033717 82 0 0.0 0.0 0.00 0.00 0.00 75 1015.4
20260901033004 82 0 0.0 0.0 0.00 0.00 0.00 74 1015.5
20260901032503 83 0 0.0 0.0 0.00 0.00 0.00 74 1015.6
20260901032218 83 0 0.0 0.0 0.00 0.00 0.00 74 1015.6
20260901031504 83 0 0.0 0.0 0.00 0.00 0.00 73 1015.5
20260901031004 83 0 0.0 0.0 0.00 0.00 0.00 73 1015.7
20260901030504 83 0 0.0 0.0 0.00 0.00 0.00 72 1015.6
20260901030004 83 0 0.0 0.0 0.00 0.00 0.00 72 1015.5
20260901025504 84 0 0.0 0.0 0.00 0.00 0.00 72 1015.4
20260901025003 84 0 0.0 0.0 0.00 0.00 0.00 72 1015.4
20260901024504 84 0 0.0 0.0 0.00 0.00 0.00 71 1015.4
20260901024003 84 0 0.0 0.0 0.00 0.00 0.00 71 1015.3
20260901023717 84 0 0.0 0.0 0.00 0.00 0.00 71 1015.3
20260901023003 84 0 0.0 0.0 0.00 0.00 0.00 70 1015.3
20260901022503 84 0 0.0 0.0 0.00 0.00 0.00 70 1015.2
20260901022218 84 216 0.0 1.0 0.00 0.00 0.00 70 1015.1
20260901021504 84 219 0.0 1.0 0.00 0.00 0.00 69 1015.0
20260901021003 85 223 0.0 1.0 0.00 0.00 0.00 69 1015.1
20260901020717 85 223 0.0 1.0 0.00 0.00 0.00 69 1015.1
20260901020003 85 223 0.0 1.0 0.00 0.00 0.00 69 1014.9
20260901015503 85 182 0.0 1.0 0.00 0.00 0.00 69 1014.9
20260901015004 85 186 0.0 1.0 0.00 0.00 0.00 69 1014.9
20260901014504 85 231 0.0 1.0 0.00 0.00 0.00 69 1015.0
20260901014003 85 238 0.0 1.0 0.00 0.00 0.00 68 1014.9
20260901013504 86 246 0.0 1.0 0.00 0.00 0.00 68 1014.8
20260901013003 86 0 0.0 0.0 0.00 0.00 0.00 69 1014.8
20260901012503 86 228 0.0 1.0 0.00 0.00 0.00 69 1014.9
20260901012003 86 228 0.0 1.0 0.00 0.00 0.00 68 1014.7
20260901011718 86 226 0.0 1.0 0.00 0.00 0.00 69 1014.6
20260901011004 86 223 0.0 1.0 0.00 0.00 0.00 68 1014.6
20260901010719 86 219 0.0 1.0 0.00 0.00 0.00 68 1014.6
20260901010004 87 231 0.0 1.0 0.00 0.00 0.00 67 1014.5
20260901005504 87 231 0.0 1.0 0.00 0.00 0.00 67 1014.6
20260901005218 87 0 0.0 0.0 0.00 0.00 0.00 67 1014.5
20260901004503 88 0 0.0 0.0 0.00 0.00 0.00 66 1014.5
20260901004003 88 0 0.0 0.0 0.00 0.00 0.00 65 1014.4
20260901003503 89 0 0.0 0.0 0.00 0.00 0.00 64 1014.4
20260901003217 89 0 0.0 0.0 0.00 0.00 0.00 64 1014.4
20260901002503 89 207 0.0 1.0 0.00 0.00 0.00 62 1014.3
20260901002003 90 207 0.0 1.0 0.00 0.00 0.00 60 1014.5
20260901001718 90 0 0.0 0.0 0.00 0.00 0.00 60 1014.5
20260901001004 90 207 0.0 1.0 0.00 0.00 0.00 58 1014.5
20260901000504 90 208 0.0 1.0 0.00 0.00 0.00 58 1014.4
20260901000004 91 210 0.0 1.0 0.00 0.00 0.00 57 1014.3
20260831235718 91 0 0.0 0.0 0.00 0.00 0.00 57 1014.4
20260831235004 92 212 0.0 1.0 0.00 0.00 0.00 56 1014.3
20260831234503 92 212 0.0 1.0 0.00 0.00 0.00 55 1014.4
20260831234217 92 0 0.0 0.0 0.00 0.00 0.00 55 1014.4
20260831233504 93 213 0.0 1.0 0.00 0.00 0.00 55 1014.5
20260831233008 93 211 0.0 1.0 0.00 0.00 0.00 55 1014.5
20260831232503 93 210 0.0 1.0 0.00 0.00 0.00 54 1014.4
20260831232003 94 0 0.0 0.0 0.00 0.00 0.00 53 1014.3
20260831231503 94 0 0.0 0.0 0.00 0.00 0.00 54 1014.5
20260831231004 94 102 0.0 1.0 0.00 0.00 0.00 53 1014.4
20260831230504 94 102 0.0 1.0 0.00 0.00 0.00 52 1014.4
20260831230003 94 0 0.0 0.0 0.00 0.00 0.00 52 1014.4
20260831225503 94 0 0.0 0.0 0.00 0.00 0.00 53 1014.5
20260831225003 94 230 0.0 3.0 0.00 0.00 0.00 52 1014.5
20260831224717 94 230 0.0 3.0 0.00 0.00 0.00 51 1014.4
20260831224004 95 258 0.0 1.0 0.00 0.00 0.00 51 1014.5
20260831223503 95 0 0.0 0.0 0.00 0.00 0.00 52 1014.6
20260831223219 95 0 0.0 0.0 0.00 0.00 0.00 50 1014.5
20260831222504 95 167 0.0 1.0 0.00 0.00 0.00 49 1014.4
20260831222218 95 182 0.0 1.0 0.00 0.00 0.00 49 1014.5
20260831221503 95 192 0.0 2.0 0.00 0.00 0.00 49 1014.5
20260831221003 95 167 0.0 2.0 0.00 0.00 0.00 51 1014.5
20260831220504 95 148 0.0 2.0 0.00 0.00 0.00 49 1014.6
20260831220218 95 156 0.0 2.0 0.00 0.00 0.00 49 1014.5
20260831215503 96 232 0.0 6.0 0.00 0.00 0.00 49 1014.4
20260831215003 96 218 0.0 6.0 0.00 0.00 0.00 49 1014.5
20260831214717 96 176 0.0 6.0 0.00 0.00 0.00 50 1014.5
20260831214003 95 118 0.0 4.0 0.00 0.00 0.00 49 1014.5
20260831213504 95 140 0.0 5.0 0.00 0.00 0.00 51 1014.5